STARLINK-32117

decayed
NORAD ID: 60076 Int'l Des: 2024-113 Owner: SPXS Country: US Constellation: starlink
LEOCIRCULAR
Group

About STARLINK-32117

Description loading...

Altitude History

Altitude vs Time

uPlot chart will show altitude changes over time

Two-Line Element Set

1 60076U 24113T 24196.13090753 .10986745 12811-4 12056-3 0 9994
2 60076 53.1393 282.8069 0011381 0.3117 70.0832 16.49579827 4817
Epoch: Jul 14, 2024 • Age: 10295 hours

Current Status

Position data unavailable
Launch Date Jun 19, 2024
Age 1.2 years
Decay Date Jul 14, 2024
Type internet

Technical Details

Classification Payload
Mass 730.00 kg
Dry Mass 700.00 kg
Total Mass 730.00 kg
Length 0.30 m
Diameter 4.10 m
Span 29.00 m
Shape Box + pan
Manufacturer SPXS
Bus Type Starlink V2M
Phase Status Unknown Transfer Status
Owner/State SPXS/US

Large Constellations

Loading constellations...